H1 CPF 2 NER 2024 4 18 9 109 01 glonass146 H2 2216101 9146 54377 2024 4 18 0 0 0 2024 4 21 23 45 0 900 1 1 0 0 0 1 H9 10 0 60418 0.00000 0 25040978.647 4337898.259 -2396947.126 10 0 60418 900.00000 0 25166561.589 4201167.111 814435.302 10 0 60418 1800.00000 0 24890495.721 4010863.740 4010032.873 10 0 60418 2700.00000 0 24213609.558 3822610.815 7127913.137 10 0 60418 3600.00000 0 23150012.870 3691015.145 10107656.595 10 0 60418 4500.00000 0 21726582.184 3667131.220 12891520.817 10 0 60418 5400.00000 0 19981932.139 3796079.799 15425552.506 10 0 60418 6300.00000 0 17964915.239 4114921.884 17660626.547 10 0 60418 7200.00000 0 15732711.986 4650877.756 19553392.521 10 0 60418 8100.00000 0 13348590.205 5419966.376 21067111.007 10 0 60418 9000.00000 0 10879425.870 6426123.014 22172364.049 10 0 60418 9900.00000 0 8393087.552 7660833.161 22847626.457 10 0 60418 10800.00000 0 5955792.086 9103299.487 23079687.129 10 0 60418 11700.00000 0 3629540.331 10721136.520 22863912.168 10 0 60418 12600.00000 0 1469738.685 12471565.854 22204344.340 10 0 60418 13500.00000 0 -476895.545 14303063.813 21113636.290 10 0 60418 14400.00000 0 -2174058.287 16157394.540 19612817.819 10 0 60418 15300.00000 0 -3597140.888 17971945.031 17730900.632 10 0 60418 16200.00000 0 -4734017.030 19682265.624 15504326.972 10 0 60418 17100.00000 0 -5585301.584 21224710.290 12976271.633 10 0 60418 18000.00000 0 -6164070.593 22539066.244 10195809.938 10 0 60418 18900.00000 0 -6495054.349 23571062.203 7216967.106 10 0 60418 19800.00000 0 -6613337.798 24274649.189 4097667.156 10 0 60418 20700.00000 0 -6562623.633 24613956.862 898601.932 10 0 60418 21600.00000 0 -6393132.263 24564841.799 -2317957.245 10 0 60418 22500.00000 0 -6159228.563 24115961.255 -5489381.289 10 0 60418 23400.00000 0 -5916877.210 23269326.060 -8553913.452 10 0 60418 24300.00000 0 -5721035.857 22040308.513 -11451882.627 10 0 60418 25200.00000 0 -5623098.124 20457104.425 -14126874.993 10 0 60418 26100.00000 0 -5668496.180 18559671.793 -16526840.061 10 0 60418 27000.00000 0 -5894565.670 16398190.868 -18605108.812 10 0 60418 27900.00000 0 -6328764.373 14031110.618 -20321303.658 10 0 60418 28800.00000 0 -6987320.598 11522863.982 -21642122.397 10 0 60418 29700.00000 0 -7874368.838 8941347.974 -22541981.212 10 0 60418 30600.00000 0 -8981609.323 6355274.232 -23003504.781 10 0 60418 31500.00000 0 -10288505.825 3831500.635 -23017854.740 10 0 60418 32400.00000 0 -11763013.306 1432454.866 -22584891.025 10 0 60418 33300.00000 0 -13362804.728 -786243.495 -21713163.874 10 0 60418 34200.00000 0 -15036945.431 -2777864.439 -20419737.437 10 0 60418 35100.00000 0 -16727944.874 -4506267.422 -18729849.164 10 0 60418 36000.00000 0 -18374099.836 -5947150.680 -16676412.042 10 0 60418 36900.00000 0 -19912031.114 -7088799.861 -14299369.737 10 0 60418 37800.00000 0 -21279307.695 -7932306.822 -11644917.300 10 0 60418 38700.00000 0 -22417048.953 -8491251.581 -8764602.639 10 0 60418 39600.00000 0 -23272396.231 -8790862.682 -5714326.161 10 0 60418 40500.00000 0 -23800750.661 -8866692.888 -2553257.895 10 0 60418 41400.00000 0 -23967683.903 -8762867.283 657307.046 10 0 60418 42300.00000 0 -23750441.952 -8529978.543 3855132.640 10 0 60418 43200.00000 0 -23138979.363 -8222718.760 6978242.999 10 0 60418 44100.00000 0 -22136480.637 -7897348.016 9966117.364 10 0 60418 45000.00000 0 -20759346.881 -7609106.528 12760856.170 10 0 60418 45900.00000 0 -19036648.028 -7409679.409 15308296.120 10 0 60418 46800.00000 0 -17009062.850 -7344820.732 17559053.243 10 0 60418 47700.00000 0 -14727350.341 -7452236.884 19469474.329 10 0 60418 48600.00000 0 -12250415.160 -7759818.302 21002478.968 10 0 60418 49500.00000 0 -9643046.527 -8284294.246 22128276.487 10 0 60418 50400.00000 0 -6973423.354 -9030367.713 22824944.348 10 0 60418 51300.00000 0 -4310487.971 -9990367.724 23078857.027 10 0 60418 52200.00000 0 -1721296.256 -11144434.865 22884957.067 10 0 60418 53100.00000 0 731546.928 -12461233.845 22246862.681 10 0 60418 54000.00000 0 2992261.414 -13899164.895 21176809.161 10 0 60418 54900.00000 0 5013976.610 -15408025.036 19695424.280 10 0 60418 55800.00000 0 6760441.290 -16931051.142 17831340.900 10 0 60418 56700.00000 0 8207287.321 -18407260.478 15620653.069 10 0 60418 57600.00000 0 9342794.710 -19773991.415 13106224.938 10 0 60418 58500.00000 0 10168125.989 -20969538.004 10336864.944 10 0 60418 59400.00000 0 10697020.224 -21935767.573 7366380.559 10 0 60418 60300.00000 0 10954959.719 -22620610.585 4252531.606 10 0 60418 61200.00000 0 10977844.911 -22980316.878 1055902.647 10 0 60418 62100.00000 0 10810234.058 -22981381.908 -2161283.147 10 0 60418 63000.00000 0 10503223.034 -22602060.378 -5336384.702 10 0 60418 63900.00000 0 10112056.129 -21833402.029 -8407573.368 10 0 60418 64800.00000 0 9693570.359 -20679764.745 -11315047.676 10 0 60418 65700.00000 0 9303582.968 -19158782.425 -14002207.629 10 0 60418 66600.00000 0 8994334.180 -17300788.411 -16416764.519 10 0 60418 67500.00000 0 8812094.696 -15147718.478 -18511763.866 10 0 60418 68400.00000 0 8795040.172 -12751539.469 -20246501.098 10 0 60418 69300.00000 0 8971483.217 -10172269.691 -21587312.010 10 0 60418 70200.00000 0 9358537.952 -7475674.208 -22508222.941 10 0 60418 71100.00000 0 9961273.513 -4730731.522 -22991448.553 10 0 60418 72000.00000 0 10772392.008 -2006977.417 -23027728.329 10 0 60418 72900.00000 0 11772444.135 628163.596 -22616496.144 10 0 60418 73800.00000 0 12930573.004 3111948.738 -21765880.532 10 0 60418 74700.00000 0 14205754.473 5388683.267 -20492536.449 10 0 60418 75600.00000 0 15548481.607 7411785.482 -18821312.523 10 0 60418 76500.00000 0 16902822.335 9145466.101 -16784760.748 10 0 60418 77400.00000 0 18208763.831 10565953.866 -14422498.505 10 0 60418 78300.00000 0 19404745.333 11662218.313 -11780435.487 10 0 60418 79200.00000 0 20430273.297 12436161.585 -8909880.585 10 0 60418 80100.00000 0 21228509.284 12902273.191 -5866546.053 10 0 60418 81000.00000 0 21748722.405 13086764.118 -2709468.203 10 0 60418 81900.00000 0 21948503.533 13026218.071 500134.610 10 0 60418 82800.00000 0 21795648.575 12765817.843 3700044.719 10 0 60418 83700.00000 0 21269632.026 12357222.368 6828245.860 10 0 60418 84600.00000 0 20362608.966 11856184.340 9824118.945 10 0 60418 85500.00000 0 19079903.329 11320009.021 12629610.023 10 0 60419 0.00000 0 17439961.756 10804961.253 15190348.104 10 0 60419 900.00000 0 15473773.304 10363729.439 17456693.084 10 0 60419 1800.00000 0 13223780.658 10043053.662 19384690.690 10 0 60419 2700.00000 0 10742324.184 9881616.580 20936921.196 10 0 60419 3600.00000 0 8089684.368 9908286.401 22083222.571 10 0 60419 4500.00000 0 5331801.853 10140785.621 22801275.917 10 0 60419 5400.00000 0 2537768.383 10584841.940 23077041.898 10 0 60419 6300.00000 0 -222808.643 11233857.762 22905039.675 10 0 60419 7200.00000 0 -2882459.923 12069113.257 22288462.606 10 0 60419 8100.00000 0 -5378417.348 13060495.790 21239127.836 10 0 60419 9000.00000 0 -7654980.866 14167726.575 19777259.814 10 0 60419 9900.00000 0 -9665591.326 15342034.548 17931110.780 10 0 60419 10800.00000 0 -11374523.352 16528208.433 15736424.390 10 0 60419 11700.00000 0 -12758127.813 17666941.764 13235751.613 10 0 60419 12600.00000 0 -13805571.926 18697372.775 10477631.218 10 0 60419 13500.00000 0 -14519046.016 19559712.271 7515649.978 10 0 60419 14400.00000 0 -14913428.283 20197848.329 4407400.499 10 0 60419 15300.00000 0 -15015421.900 20561817.036 1213357.017 10 0 60419 16200.00000 0 -14862201.282 20610033.769 -2004308.463 10 0 60419 17100.00000 0 -14499625.416 20311189.326 -5182945.823 10 0 60419 18000.00000 0 -13980094.767 19645729.325 -8260657.337 10 0 60419 18900.00000 0 -13360143.665 18606852.986 -11177513.828 10 0 60419 19800.00000 0 -12697871.398 17200987.944 -13876731.553 10 0 60419 20700.00000 0 -12050322.092 15447720.139 -16305785.733 10 0 60419 21600.00000 0 -11470925.481 13379181.118 -18417438.250 10 0 60419 22500.00000 0 -11007107.770 11038918.194 -20170659.016 10 0 60419 23400.00000 0 -10698174.240 8480294.754 -21531422.945 10 0 60419 24300.00000 0 -10573553.309 5764487.781 -22473367.271 10 0 60419 25200.00000 0 -10651476.069 2958166.352 -22978297.015 10 0 60419 26100.00000 0 -10938146.593 130948.026 -23036529.500 10 0 60419 27000.00000 0 -11427437.384 -2647261.086 -22647072.144 10 0 60419 27900.00000 0 -12101122.032 -5308932.272 -21817630.982 10 0 60419 28800.00000 0 -12929634.568 -7791476.035 -20564450.572 10 0 60419 29700.00000 0 -13873322.859 -10039594.280 -18911989.133 10 0 60419 30600.00000 0 -14884142.816 -12007326.426 -16892435.727 10 0 60419 31500.00000 0 -15907721.764 -13659705.874 -14545079.232 10 0 60419 32400.00000 0 -16885704.015 -14973959.605 -11915541.544 10 0 60419 33300.00000 0 -17758279.941 -15940202.789 -9054889.944 10 0 60419 34200.00000 0 -18466792.336 -16561601.331 -6018645.874 10 0 60419 35100.00000 0 -18956310.618 -16853997.337 -2865709.244 10 0 60419 36000.00000 0 -19178064.691 -16845014.743 342781.047 10 0 60419 36900.00000 0 -19091636.469 -16572684.127 3544628.354 10 0 60419 37800.00000 0 -18666816.896 -16083645.431 6677778.659 10 0 60419 38700.00000 0 -17885050.487 -15431004.916 9681517.124 10 0 60419 39600.00000 0 -16740406.631 -14671936.905 12497637.903 10 0 60419 40500.00000 0 -15240036.365 -13865131.204 15071565.091 10 0 60419 41400.00000 0 -13404094.804 -13068193.410 17353403.656 10 0 60419 42300.00000 0 -11265131.501 -12335107.115 19298900.593 10 0 60419 43200.00000 0 -8866972.921 -11713864.243 20870298.353 10 0 60419 44100.00000 0 -6263142.136 -11244362.711 22037064.638 10 0 60419 45000.00000 0 -3514879.886 -10956659.476 22776484.871 10 0 60419 45900.00000 0 -688847.552 -10869652.285 23074106.156 10 0 60419 46800.00000 0 2145394.268 -10990245.729 22924024.112 10 0 60419 47700.00000 0 4918028.475 -11313037.209 22329006.722 10 0 60419 48600.00000 0 7561637.148 -11820536.835 21300452.136 10 0 60419 49500.00000 0 10013761.033 -12483913.142 19858180.326 10 0 60419 50400.00000 0 12219257.197 -13264234.454 18030061.502 10 0 60419 51300.00000 0 14132357.204 -14114154.852 15851487.248 10 0 60419 52200.00000 0 15718340.185 -14979974.759 13364693.413 10 0 60419 53100.00000 0 16954750.872 -15803989.955 10617946.887 10 0 60419 54000.00000 0 17832111.483 -16527030.206 7664611.282 10 0 60419 54900.00000 0 18354097.465 -17091080.091 4562109.282 10 0 60419 55800.00000 0 18537169.680 -17441870.589 1370801.924 10 0 60419 56700.00000 0 18409678.756 -17531330.789 -1847192.930 10 0 60419 57600.00000 0 18010479.829 -17319794.625 -5029219.090 10 0 60419 58500.00000 0 17387116.961 -16777867.766 -8113312.648 10 0 60419 59400.00000 0 16593654.966 -15887874.178 -11039419.457 10 0 60419 60300.00000 0 15688251.554 -14644819.809 -13750574.544 10 0 60419 61200.00000 0 14730573.680 -13056831.495 -16194019.325 10 0 60419 62100.00000 0 13779168.564 -11145051.681 -18322234.027 10 0 60419 63000.00000 0 12888901.435 -8942992.726 -20093864.721 10 0 60419 63900.00000 0 12108568.902 -6495377.540 -21474526.760 10 0 60419 64800.00000 0 11478788.962 -3856514.980 -22437469.239 10 0 60419 65700.00000 0 11030256.487 -1088277.856 -22964088.113 10 0 60419 66600.00000 0 10782437.242 1742232.073 -23044278.728 10 0 60419 67500.00000 0 10742754.587 4565234.929 -22676621.844 10 0 60419 68400.00000 0 10906302.111 7310933.520 -21868400.429 10 0 60419 69300.00000 0 11256093.178 9912173.970 -20635447.748 10 0 60419 70200.00000 0 11763835.776 12306996.361 -19001830.400 10 0 60419 71100.00000 0 12391199.111 14440970.440 -16999373.008 10 0 60419 72000.00000 0 13091517.814 16269220.505 -14667034.143 10 0 60419 72900.00000 0 13811861.458 17758056.722 -12050145.818 10 0 60419 73800.00000 0 14495381.861 18886146.511 -9199531.353 10 0 60419 74700.00000 0 15083839.176 19645178.880 -6170518.768 10 0 60419 75600.00000 0 15520200.339 20039995.591 -3021868.721 10 0 60419 76500.00000 0 15751200.523 20088185.262 185362.314 10 0 60419 77400.00000 0 15729759.790 19819158.740 3389001.760 10 0 60419 78300.00000 0 15417153.239 19272745.658 6526960.891 10 0 60419 79200.00000 0 14784843.458 18497371.992 9538432.036 10 0 60419 80100.00000 0 13815897.937 17547895.558 12365060.197 10 0 60419 81000.00000 0 12505931.570 16483190.555 14952066.861 10 0 60419 81900.00000 0 10863534.020 15363582.488 17249304.788 10 0 60419 82800.00000 0 8910163.032 14248240.788 19212223.971 10 0 60419 83700.00000 0 6679506.901 13192638.100 20802730.710 10 0 60419 84600.00000 0 4216341.127 12246182.265 21989923.783 10 0 60419 85500.00000 0 1574925.188 11450119.795 22750693.916 10 0 60420 0.00000 0 -1182995.521 10835798.428 23070175.224 10 0 60420 900.00000 0 -3990502.905 10423361.128 22942039.990 10 0 60420 1800.00000 0 -6778036.542 10220927.206 22368630.431 10 0 60420 2700.00000 0 -9476042.640 10224294.178 21360924.843 10 0 60420 3600.00000 0 -12017629.214 10417174.402 19938337.350 10 0 60420 4500.00000 0 -14341119.494 10771956.959 18128354.246 10 0 60420 5400.00000 0 -16392397.662 11250963.697 15966012.707 10 0 60420 6300.00000 0 -18126949.404 11808147.348 13493230.759 10 0 60420 7200.00000 0 -19511511.958 12391160.714 10758000.442 10 0 60420 8100.00000 0 -20525264.408 12943709.883 7813459.073 10 0 60420 9000.00000 0 -21160508.002 13408091.911 4716856.230 10 0 60420 9900.00000 0 -21422807.609 13727809.077 1528436.590 10 0 60420 10800.00000 0 -21330588.285 13850148.120 -1689739.196 10 0 60420 11700.00000 0 -20914204.103 13728613.934 -4875011.828 10 0 60420 12600.00000 0 -20214518.979 13325113.139 -7965354.016 10 0 60420 13500.00000 0 -19281060.191 12611793.526 -10900589.261 10 0 60420 14400.00000 0 -18169823.579 11572459.953 -13623573.757 10 0 60420 15300.00000 0 -16940824.287 10203505.501 -16081317.234 10 0 60420 16200.00000 0 -15655497.611 8514317.421 -18226020.050 10 0 60420 17100.00000 0 -14374060.668 6527139.874 -20016005.847 10 0 60420 18000.00000 0 -13152946.893 4276398.626 -21416531.429 10 0 60420 18900.00000 0 -12042421.840 1807515.637 -22400458.337 10 0 60420 19800.00000 0 -11084480.631 -824737.071 -22948773.623 10 0 60420 20700.00000 0 -10311115.016 -3558275.613 -23050950.406 10 0 60420 21600.00000 0 -9743022.050 -6326049.636 -22705142.138 10 0 60420 22500.00000 0 -9388807.465 -9058597.491 -21918207.688 10 0 60420 23400.00000 0 -9244715.851 -11686705.196 -20705567.628 10 0 60420 24300.00000 0 -9294897.521 -14144059.228 -19090895.213 10 0 60420 25200.00000 0 -9512199.430 -16369783.652 -17105648.616 10 0 60420 26100.00000 0 -9859445.635 -18310757.053 -14788453.877 10 0 60420 27000.00000 0 -10291152.306 -19923614.017 -12184350.731 10 0 60420 27900.00000 0 -10755604.341 -21176349.247 -9343916.055 10 0 60420 28800.00000 0 -11197205.508 -22049458.786 -6322281.927 10 0 60420 29700.00000 0 -11559002.787 -22536572.165 -3178067.273 10 0 60420 30600.00000 0 -11785278.341 -22644550.478 27756.327 10 0 60420 31500.00000 0 -11824099.773 -22393047.476 3233042.801 10 0 60420 32400.00000 0 -11629721.247 -21813553.229 6375671.092 10 0 60420 33300.00000 0 -11164734.270 -20947961.254 9394743.058 10 0 60420 34200.00000 0 -10401877.502 -19846719.761 12231756.856 10 0 60420 35100.00000 0 -9325429.164 -18566644.780 14831733.561 10 0 60420 36000.00000 0 -7932122.930 -17168486.738 17144275.774 10 0 60420 36900.00000 0 -6231548.058 -15714352.217 19124538.320 10 0 60420 37800.00000 0 -4246015.773 -14265088.369 20734092.899 10 0 60420 38700.00000 0 -2009895.987 -12877738.866 21941670.577 10 0 60420 39600.00000 0 431549.756 -11603177.190 22723768.228 10 0 60420 40500.00000 0 3023792.417 -10484015.691 23065107.447 10 0 60420 41400.00000 0 5705051.157 -9552877.394 22958937.137 10 0 60420 42300.00000 0 8408618.727 -8831102.648 22407173.543 10 0 60420 43200.00000 0 11065401.708 -8327944.722 21420374.469 10 0 60420 44100.00000 0 13606571.568 -8040288.280 20017547.231 10 0 60420 45000.00000 0 15966217.380 -7952902.951 18225792.951 10 0 60420 45900.00000 0 18083890.540 -8039221.883 16079792.863 10 0 60420 46800.00000 0 19906935.727 -8262613.046 13621145.330 10 0 60420 47700.00000 0 21392510.686 -8578090.187 10897565.418 10 0 60420 48600.00000 0 22509210.027 -8934391.407 7961961.730 10 0 60420 49500.00000 0 23238224.493 -9276337.456 4871408.046 10 0 60420 50400.00000 0 23573986.475 -9547369.478 1686029.758 10 0 60420 51300.00000 0 23524274.233 -9692157.880 -1532172.770 10 0 60420 52200.00000 0 23109770.223 -9659170.600 -4720540.247 10 0 60420 53100.00000 0 22363092.265 -9403090.480 -7816985.067 10 0 60420 54000.00000 0 21327338.863 -8886977.708 -10761211.277 10 0 60420 54900.00000 0 20054210.752 -8084084.179 -13495898.891 10 0 60420 55800.00000 0 18601788.907 -6979241.475 -15967828.308 10 0 60420 56700.00000 0 17032063.748 -5569762.545 -18128922.053 10 0 60420 57600.00000 0 15408320.640 -3865817.949 -19937183.041 10 0 60420 58500.00000 0 13792492.636 -1890270.036 -21357510.886 10 0 60420 59400.00000 0 12242592.268 322028.519 -22362380.605 10 0 60420 60300.00000 0 10810330.427 2725442.835 -22932371.028 10 0 60420 61200.00000 0 9539021.946 5265220.215 -23056533.382 10 0 60420 62100.00000 0 8461864.966 7879541.516 -22732593.781 10 0 60420 63000.00000 0 7600665.036 10501874.143 -21966986.620 10 0 60420 63900.00000 0 6965055.986 13063528.925 -20774719.043 10 0 60420 64800.00000 0 6552248.530 15496314.865 -19179069.893 10 0 60420 65700.00000 0 6347315.430 17735181.892 -17211129.490 10 0 60420 66600.00000 0 6323999.561 19720742.336 -14909189.599 10 0 60420 67500.00000 0 6446009.406 21401567.118 -12317995.626 10 0 60420 68400.00000 0 6668746.213 22736162.040 -9487875.643 10 0 60420 69300.00000 0 6941389.110 23694542.834 -6473763.134 10 0 60420 70200.00000 0 7209249.650 24259344.587 -3334132.391 10 0 60420 71100.00000 0 7416296.069 24426420.184 -129867.028 10 0 60420 72000.00000 0 7507740.508 24204903.854 3076916.563 10 0 60420 72900.00000 0 7432580.069 23616738.231 6224068.184 10 0 60420 73800.00000 0 7145984.456 22695685.422 9250602.326 10 0 60420 74700.00000 0 6611429.561 21485864.039 12097873.236 10 0 60420 75600.00000 0 5802486.942 20039873.694 14710704.294 10 0 60420 76500.00000 0 4704193.487 18416585.389 17038450.401 10 0 60420 77400.00000 0 3313943.067 16678689.964 19035973.371 10 0 60420 78300.00000 0 1641861.741 14890106.606 20664512.144 10 0 60420 79200.00000 0 -289350.560 13113358.994 21892431.575 10 0 60420 80100.00000 0 -2445106.932 11407027.933 22695835.792 10 0 60420 81000.00000 0 -4780122.224 9823386.036 23059034.567 10 0 60420 81900.00000 0 -7240056.139 8406312.502 22974853.708 10 0 60420 82800.00000 0 -9763544.348 7189574.540 22444783.178 10 0 60420 83700.00000 0 -12284535.044 6195546.869 21478959.476 10 0 60420 84600.00000 0 -14734835.474 5434422.720 20095981.748 10 0 60420 85500.00000 0 -17046763.705 4903949.448 18322564.038 10 0 60421 0.00000 0 -19155795.978 4589700.053 16193029.428 10 0 60421 900.00000 0 -21003100.712 4465869.383 13748653.400 10 0 60421 1800.00000 0 -22537850.575 4496562.087 11036871.043 10 0 60421 2700.00000 0 -23719219.270 4637517.609 8110358.865 10 0 60421 3600.00000 0 -24517975.861 4838199.671 5026011.360 10 0 60421 4500.00000 0 -24917610.114 5044161.237 1843831.169 10 0 60421 5400.00000 0 -24914940.625 5199584.064 -1374245.015 10 0 60421 6300.00000 0 -24520179.565 5249884.121 -4565561.141 10 0 60421 7200.00000 0 -23756451.036 5144271.023 -7667972.325 10 0 60421 8100.00000 0 -22658783.365 4838151.431 -10621065.977 10 0 60421 9000.00000 0 -21272618.211 4295272.966 -13367348.495 10 0 60421 9900.00000 0 -19651900.003 3489516.292 -15853373.200 10 0 60421 10800.00000 0 -17856827.044 2406258.206 -18030786.665 10 0 60421 11700.00000 0 -15951359.839 1043246.981 -19857272.535 10 0 60421 12600.00000 0 -14000592.252 -589047.813 -21297374.214 10 0 60421 13500.00000 0 -12068096.461 -2467626.432 -22323180.655 10 0 60421 14400.00000 0 -10213353.319 -4557683.407 -22914862.409 10 0 60421 15300.00000 0 -8489375.615 -6813835.267 -23061048.247 10 0 60421 16200.00000 0 -6940623.108 -9181800.338 -22759035.926 10 0 60421 17100.00000 0 -5601295.465 -11600460.655 -22014833.916 10 0 60421 18000.00000 0 -4494073.102 -14004220.108 -20843034.140 10 0 60421 18900.00000 0 -3629356.831 -16325560.849 -19266518.923 10 0 60421 19800.00000 0 -3005036.243 -18497691.815 -17316008.398 10 0 60421 20700.00000 0 -2606794.599 -20457179.561 -15029457.562 10 0 60421 21600.00000 0 -2408935.540 -22146452.416 -12451314.904 10 0 60421 22500.00000 0 -2375695.240 -23516074.332 -9631657.058 10 0 60421 23400.00000 0 -2462983.414 -24526694.460 -6625216.321 10 0 60421 24300.00000 0 -2620478.788 -25150591.975 -3490319.820 10 0 60421 25200.00000 0 -2793989.958 -25372752.408 -287760.741 10 0 60421 26100.00000 0 -2927981.590 -25191431.522 2920376.543 10 0 60421 27000.00000 0 -2968159.103 -24618183.671 6071914.944 10 0 60421 27900.00000 0 -2864002.678 -23677354.228 9105783.750 10 0 60421 28800.00000 0 -2571143.755 -22405057.828 11963195.361 10 0 60421 29700.00000 0 -2053483.712 -20847685.171 14588777.414 10 0 60421 30600.00000 0 -1284965.311 -19060000.771 16931638.896 10 0 60421 31500.00000 0 -250921.958 -17102910.834 18946350.193 10 0 60421 32400.00000 0 1051052.660 -15040993.861 20593818.800 10 0 60421 33300.00000 0 2610752.113 -12939896.244 21842044.366 10 0 60421 34200.00000 0 4405538.174 -10863700.593 22666738.947 10 0 60421 35100.00000 0 6401049.338 -8872375.532 23051800.797 10 0 60421 36000.00000 0 8552409.338 -7019412.315 22989632.589 10 0 60421 36900.00000 0 10805887.313 -5349746.033 22481297.609 10 0 60421 37800.00000 0 13100942.456 -3898047.440 21536510.357 10 0 60421 38700.00000 0 15372569.814 -2687456.291 20173460.820 10 0 60421 39600.00000 0 17553850.961 -1728808.924 18418474.711 10 0 60421 40500.00000 0 19578604.270 -1020392.379 16305515.047 10 0 60421 41400.00000 0 21384024.782 -548235.415 13875533.449 10 0 60421 42300.00000 0 22913203.400 -286924.280 11175682.690 10 0 60421 43200.00000 0 24117419.636 -200908.894 8258404.941 10 0 60421 44100.00000 0 24958111.099 -246244.152 5180412.935 10 0 60421 45000.00000 0 25408436.105 -372692.335 2001583.870 10 0 60421 45900.00000 0 25454362.732 -526096.926 -1216212.066 10 0 60421 46800.00000 0 25095237.583 -650926.236 -4410324.973 10 0 60421 47700.00000 0 24343809.626 -692877.704 -7518555.570 10 0 60421 48600.00000 0 23225707.718 -601430.966 -10480377.386 10 0 60421 49500.00000 0 21778393.818 -332239.886 -13238125.737 10 0 60421 50400.00000 0 20049636.292 150739.333 -15738129.128 10 0 60421 51300.00000 0 18095568.135 873475.443 -17931760.154 10 0 60421 52200.00000 0 15978412.481 1850521.012 -19776384.852 10 0 60421 53100.00000 0 13763971.671 3084160.353 -21236191.802 10 0 60421 54000.00000 0 11518985.791 4564083.170 -22282885.010 10 0 60421 54900.00000 0 9308471.648 6267598.068 -22896227.603 10 0 60421 55800.00000 0 7193153.514 8160377.223 -23064426.477 10 0 60421 56700.00000 0 5227092.542 10197701.155 -22784351.316 10 0 60421 57600.00000 0 3455612.960 12326151.616 -22061584.636 10 0 60421 58500.00000 0 1913610.323 14485681.878 -20910302.754 10 0 60421 59400.00000 0 624310.765 16611978.134 -19352990.736 10 0 60421 60300.00000 0 -401468.840 18639013.681 -17419997.411 10 0 60421 61200.00000 0 -1165530.935 20501689.637 -15148939.522 10 0 60421 62100.00000 0 -1681970.850 22138452.398 -12583966.783 10 0 60421 63000.00000 0 -1976329.519 23493779.136 -9774902.203 10 0 60421 63900.00000 0 -2084262.699 24520428.168 -6776274.386 10 0 60421 64800.00000 0 -2049784.076 25181360.800 -3646260.513 10 0 60421 65700.00000 0 -1923157.327 25451254.988 -445560.381 10 0 60421 66600.00000 0 -1758526.792 25317548.079 2763776.784 10 0 60421 67500.00000 0 -1611387.148 24780965.541 5919550.189 10 0 60421 68400.00000 0 -1535999.053 23855514.114 8960607.058 10 0 60421 69300.00000 0 -1582859.876 22567939.824 11828021.007 10 0 60421 70200.00000 0 -1796336.134 20956673.629 14466226.832 10 0 60421 71100.00000 0 -2212557.436 19070308.553 16824090.292 10 0 60421 72000.00000 0 -2857660.837 16965671.381 18855892.786 10 0 60421 72900.00000 0 -3746459.820 14705568.757 20522212.524 10 0 60421 73800.00000 0 -4881594.575 12356300.690 21790685.789 10 0 60421 74700.00000 0 -6253200.317 9985044.081 22636634.041 10 0 60421 75600.00000 0 -7839108.980 7657214.017 23043545.093 10 0 60421 76500.00000 0 -9605577.600 5433911.604 23003399.089 10 0 60421 77400.00000 0 -11508514.891 3369563.522 22516832.745 10 0 60421 78300.00000 0 -13495156.758 1509850.762 21593138.100 10 0 60421 79200.00000 0 -15506122.737 -109987.842 20250094.939 10 0 60421 80100.00000 0 -17477769.130 -1466406.884 18513639.017 10 0 60421 81000.00000 0 -19344741.811 -2548308.458 16417371.302 10 0 60421 81900.00000 0 -21042622.825 -3357267.552 14001916.475 10 0 60421 82800.00000 0 -22510560.272 -3907219.342 11314142.054 10 0 60421 83700.00000 0 -23693771.061 -4223621.589 8406252.444 10 0 60421 84600.00000 0 -24545810.877 -4342127.639 5334775.002 10 0 60421 85500.00000 0 -25030514.985 -4306826.423 2159457.780 99